Location: Sevilla
(37.3933°N, 5.9839°W)
Time: 04:43:34
(UTC+02:00)

Transit 2A - Pass Details

Date: 04 July 2024
Orbit: 591 x 960 km, 66.7° (Epoch: 15 July)

Event Time Altitude Azimuth Distance (km) Brightness Sun altitude
Rises 15:21:12 0° 240° (WSW) 3,064 9.4 71.5°
Reaches altitude 10° 15:23:45 10° 253° (WSW) 2,210 8.8 71.2°
Maximum altitude 15:28:01 27° 310° (NW) 1,468 7.9 70.6°
Drops below altitude 10° 15:32:40 10° 7° (N) 2,432 8.6 69.9°
Sets 15:35:39 0° 19° (NNE) 3,436 9.2 69.5°
